Time,TemperatureF,DewpointF,PressureIn,WindDirection,WindDirectionDegrees,WindSpeedMPH,WindSpeedGustMPH,Humidity,HourlyPrecipIn,Conditions,Clouds,dailyrainin,SoftwareType,DateUTC
2013-04-26 00:04:00,48.7,48.2,30.14,NNE,22,0.0,-999.0,98,-99.99,,,0.00,Acu-Link.com,2013-04-26 04:04:00,
2013-04-26 00:19:00,48.4,47.9,30.14,NW,315,0.0,-999.0,98,-99.99,,,0.00,Acu-Link.com,2013-04-26 04:19:00,
2013-04-26 00:34:00,48.4,47.9,30.14,NNE,22,0.0,-999.0,98,-99.99,,,0.00,Acu-Link.com,2013-04-26 04:34:00,
2013-04-26 00:50:00,47.8,47.3,30.14,NNE,22,0.0,-999.0,98,-99.99,,,0.00,Acu-Link.com,2013-04-26 04:50:00,
2013-04-26 01:05:00,47.7,47.4,30.14,NNE,22,0.0,-999.0,99,-99.99,,,0.00,Acu-Link.com,2013-04-26 05:05:00,
2013-04-26 01:20:00,47.7,47.4,30.15,NNE,22,0.0,-999.0,99,-99.99,,,0.00,Acu-Link.com,2013-04-26 05:20:00,
2013-04-26 01:35:00,47.8,47.5,30.14,NNE,22,0.0,-999.0,99,-99.99,,,0.00,Acu-Link.com,2013-04-26 05:35:00,
2013-04-26 01:51:00,47.5,47.2,30.15,NNE,22,0.0,-999.0,99,-99.99,,,0.00,Acu-Link.com,2013-04-26 05:51:00,
2013-04-26 02:06:00,48.4,48.1,30.15,NE,45,0.0,-999.0,99,-99.99,,,0.00,Acu-Link.com,2013-04-26 06:06:00,
2013-04-26 02:21:00,48.7,48.4,30.16,East,90,0.0,-999.0,99,-99.99,,,0.00,Acu-Link.com,2013-04-26 06:21:00,
2013-04-26 02:36:00,48.4,48.1,30.16,ESE,112,0.0,-999.0,99,-99.99,,,0.00,Acu-Link.com,2013-04-26 06:36:00,
2013-04-26 02:52:00,47.8,47.5,30.15,ESE,112,0.0,-999.0,99,-99.99,,,0.00,Acu-Link.com,2013-04-26 06:52:00,
2013-04-26 03:07:00,48.7,48.4,30.16,ESE,112,0.0,-999.0,99,-99.99,,,0.00,Acu-Link.com,2013-04-26 07:07:00,
2013-04-26 03:22:00,51.8,51.5,30.16,South,180,4.2,-999.0,99,-99.99,,,0.00,Acu-Link.com,2013-04-26 07:22:00,
2013-04-26 03:38:00,51.1,50.8,30.16,South,180,1.7,-999.0,99,-99.99,,,0.00,Acu-Link.com,2013-04-26 07:38:00,
2013-04-26 03:53:00,51.6,51.3,30.17,SSE,157,0.0,-999.0,99,-99.99,,,0.00,Acu-Link.com,2013-04-26 07:53:00,
2013-04-26 04:08:00,52.2,51.9,30.17,SW,225,1.7,-999.0,99,-99.99,,,0.00,Acu-Link.com,2013-04-26 08:08:00,
2013-04-26 04:23:00,52.0,51.7,30.17,SW,225,0.0,-999.0,99,-99.99,,,0.00,Acu-Link.com,2013-04-26 08:23:00,
2013-04-26 04:38:00,50.7,50.4,30.18,ESE,112,0.0,-999.0,99,-99.99,,,0.00,Acu-Link.com,2013-04-26 08:38:00,
2013-04-26 04:53:00,49.6,49.3,30.17,ESE,112,0.0,-999.0,99,-99.99,,,0.00,Acu-Link.com,2013-04-26 08:53:00,
2013-04-26 05:09:00,48.6,48.3,30.18,ESE,112,0.0,-999.0,99,-99.99,,,0.00,Acu-Link.com,2013-04-26 09:09:00,
2013-04-26 05:24:00,47.7,47.4,30.18,ESE,112,0.0,-999.0,99,-99.99,,,0.00,Acu-Link.com,2013-04-26 09:24:00,
2013-04-26 05:39:00,48.4,48.1,30.18,South,180,1.7,-999.0,99,-99.99,,,0.00,Acu-Link.com,2013-04-26 09:39:00,
2013-04-26 05:55:00,47.1,46.8,30.20,SSW,202,0.0,-999.0,99,-99.99,,,0.00,Acu-Link.com,2013-04-26 09:55:00,
2013-04-26 06:10:00,46.4,46.1,30.20,SSW,202,0.0,-999.0,99,-99.99,,,0.00,Acu-Link.com,2013-04-26 10:10:00,
2013-04-26 06:25:00,46.2,45.9,30.21,SW,225,0.0,-999.0,99,-99.99,,,0.00,Acu-Link.com,2013-04-26 10:25:00,
2013-04-26 06:41:00,46.4,46.1,30.21,South,180,1.7,-999.0,99,-99.99,,,0.00,Acu-Link.com,2013-04-26 10:41:00,
2013-04-26 06:56:00,47.3,47.0,30.22,South,180,1.7,-999.0,99,-99.99,,,0.00,Acu-Link.com,2013-04-26 10:56:00,
2013-04-26 07:11:00,47.8,47.5,30.23,South,180,0.0,-999.0,99,-99.99,,,0.00,Acu-Link.com,2013-04-26 11:11:00,
2013-04-26 07:26:00,48.2,47.9,30.24,SW,225,0.0,-999.0,99,-99.99,,,0.00,Acu-Link.com,2013-04-26 11:26:00,
2013-04-26 07:42:00,48.6,48.3,30.24,South,180,1.7,-999.0,99,-99.99,,,0.00,Acu-Link.com,2013-04-26 11:42:00,
2013-04-26 07:57:00,49.6,49.3,30.25,WNW,292,1.7,-999.0,99,-99.99,,,0.00,Acu-Link.com,2013-04-26 11:57:00,
2013-04-26 08:12:00,50.7,50.4,30.26,SW,225,3.2,-999.0,99,-99.99,,,0.00,Acu-Link.com,2013-04-26 12:12:00,
2013-04-26 08:28:00,52.0,51.7,30.26,SSW,202,2.2,-999.0,99,-99.99,,,0.00,Acu-Link.com,2013-04-26 12:28:00,
2013-04-26 08:43:00,53.2,51.2,30.26,South,180,3.2,-999.0,93,-99.99,,,0.00,Acu-Link.com,2013-04-26 12:43:00,
2013-04-26 08:58:00,55.2,47.1,30.27,North,0,2.7,-999.0,74,-99.99,,,0.00,Acu-Link.com,2013-04-26 12:58:00,
2013-04-26 09:14:00,58.8,47.5,30.28,NE,45,4.2,-999.0,66,-99.99,,,0.00,Acu-Link.com,2013-04-26 13:14:00,
2013-04-26 09:29:00,62.6,45.2,30.28,WNW,292,1.1,-999.0,53,-99.99,,,0.00,Acu-Link.com,2013-04-26 13:29:00,
2013-04-26 09:44:00,64.0,41.6,30.28,SSE,157,2.2,-999.0,44,-99.99,,,0.00,Acu-Link.com,2013-04-26 13:44:00,
2013-04-26 09:59:00,66.9,43.1,30.28,South,180,2.7,-999.0,42,-99.99,,,0.00,Acu-Link.com,2013-04-26 13:59:00,
2013-04-26 10:14:00,67.6,41.1,30.28,WSW,247,2.7,-999.0,38,-99.99,,,0.00,Acu-Link.com,2013-04-26 14:14:00,
2013-04-26 10:30:00,69.3,39.0,30.29,NE,45,3.7,-999.0,33,-99.99,,,0.00,Acu-Link.com,2013-04-26 14:30:00,
2013-04-26 10:45:00,68.2,38.0,30.28,SSW,202,5.8,-999.0,33,-99.99,,,0.00,Acu-Link.com,2013-04-26 14:45:00,
2013-04-26 11:00:00,69.4,38.3,30.28,SSW,202,2.7,-999.0,32,-99.99,,,0.00,Acu-Link.com,2013-04-26 15:00:00,
2013-04-26 11:16:00,69.3,36.5,30.28,West,270,4.7,-999.0,30,-99.99,,,0.00,Acu-Link.com,2013-04-26 15:16:00,
2013-04-26 11:31:00,69.6,39.2,30.27,ENE,67,2.2,-999.0,33,-99.99,,,0.00,Acu-Link.com,2013-04-26 15:31:00,
2013-04-26 11:46:00,69.8,36.1,30.27,South,180,4.2,-999.0,29,-99.99,,,0.00,Acu-Link.com,2013-04-26 15:46:00,
2013-04-26 12:02:00,72.1,36.3,30.27,West,270,4.7,-999.0,27,-99.99,,,0.00,Acu-Link.com,2013-04-26 16:02:00,
2013-04-26 12:17:00,71.1,37.2,30.26,NW,315,2.2,-999.0,29,-99.99,,,0.00,Acu-Link.com,2013-04-26 16:17:00,
2013-04-26 12:32:00,69.3,38.2,30.24,NNW,337,1.7,-999.0,32,-99.99,,,0.00,Acu-Link.com,2013-04-26 16:32:00,
2013-04-26 12:47:00,69.4,34.0,30.24,NNE,22,1.7,-999.0,27,-99.99,,,0.00,Acu-Link.com,2013-04-26 16:47:00,
2013-04-26 13:02:00,70.3,39.0,30.24,NNE,22,2.7,-999.0,32,-99.99,,,0.00,Acu-Link.com,2013-04-26 17:02:00,
2013-04-26 13:17:00,70.3,39.0,30.24,NNE,22,4.2,-999.0,32,-99.99,,,0.00,Acu-Link.com,2013-04-26 17:17:00,
2013-04-26 13:33:00,71.8,36.0,30.24,WNW,292,0.0,-999.0,27,-99.99,,,0.00,Acu-Link.com,2013-04-26 17:33:00,
2013-04-26 13:48:00,70.9,36.2,30.25,NE,45,3.7,-999.0,28,-99.99,,,0.00,Acu-Link.com,2013-04-26 17:48:00,
2013-04-26 14:03:00,72.3,38.3,30.25,NNE,22,2.2,-999.0,29,-99.99,,,0.00,Acu-Link.com,2013-04-26 18:03:00,
2013-04-26 14:19:00,71.2,37.3,30.24,West,270,2.7,-999.0,29,-99.99,,,0.00,Acu-Link.com,2013-04-26 18:19:00,
2013-04-26 14:34:00,72.0,40.5,30.24,South,180,3.7,-999.0,32,-99.99,,,0.00,Acu-Link.com,2013-04-26 18:34:00,
2013-04-26 14:49:00,71.8,36.0,30.23,South,180,3.7,-999.0,27,-99.99,,,0.00,Acu-Link.com,2013-04-26 18:49:00,
2013-04-26 15:05:00,71.4,37.5,30.23,NE,45,4.2,-999.0,29,-99.99,,,0.00,Acu-Link.com,2013-04-26 19:05:00,
2013-04-26 15:20:00,72.1,40.6,30.22,WSW,247,1.1,-999.0,32,-99.99,,,0.00,Acu-Link.com,2013-04-26 19:20:00,
2013-04-26 15:35:00,72.9,39.6,30.22,ENE,67,2.7,-999.0,30,-99.99,,,0.00,Acu-Link.com,2013-04-26 19:35:00,
2013-04-26 15:50:00,72.3,39.1,30.21,ESE,112,2.2,-999.0,30,-99.99,,,0.00,Acu-Link.com,2013-04-26 19:50:00,
2013-04-26 16:05:00,72.0,38.9,30.20,South,180,1.7,-999.0,30,-99.99,,,0.00,Acu-Link.com,2013-04-26 20:05:00,
2013-04-26 16:21:00,73.9,38.7,30.19,SSE,157,2.2,-999.0,28,-99.99,,,0.00,Acu-Link.com,2013-04-26 20:21:00,
2013-04-26 16:36:00,71.6,35.8,30.20,South,180,6.3,-999.0,27,-99.99,,,0.00,Acu-Link.com,2013-04-26 20:36:00,
2013-04-26 16:51:00,71.4,35.7,30.19,SSW,202,0.0,-999.0,27,-99.99,,,0.00,Acu-Link.com,2013-04-26 20:51:00,
2013-04-26 17:06:00,70.2,36.4,30.19,WSW,247,2.2,-999.0,29,-99.99,,,0.00,Acu-Link.com,2013-04-26 21:06:00,
2013-04-26 17:22:00,70.2,36.4,30.18,West,270,0.0,-999.0,29,-99.99,,,0.00,Acu-Link.com,2013-04-26 21:22:00,
2013-04-26 17:37:00,70.3,38.2,30.17,NNW,337,0.0,-999.0,31,-99.99,,,0.00,Acu-Link.com,2013-04-26 21:37:00,
2013-04-26 17:52:00,71.6,36.8,30.17,South,180,2.7,-999.0,28,-99.99,,,0.00,Acu-Link.com,2013-04-26 21:52:00,
2013-04-26 18:07:00,70.0,35.4,30.17,SSW,202,0.0,-999.0,28,-99.99,,,0.00,Acu-Link.com,2013-04-26 22:07:00,
2013-04-26 18:23:00,69.3,37.4,30.18,NNW,337,0.0,-999.0,31,-99.99,,,0.00,Acu-Link.com,2013-04-26 22:23:00,
2013-04-26 18:38:00,70.2,37.3,30.17,SE,135,0.0,-999.0,30,-99.99,,,0.00,Acu-Link.com,2013-04-26 22:38:00,
2013-04-26 18:53:00,69.4,38.3,30.18,South,180,0.0,-999.0,32,-99.99,,,0.00,Acu-Link.com,2013-04-26 22:53:00,
2013-04-26 19:09:00,68.7,37.6,30.18,South,180,0.0,-999.0,32,-99.99,,,0.00,Acu-Link.com,2013-04-26 23:09:00,
2013-04-26 19:24:00,67.5,39.6,30.19,South,180,0.0,-999.0,36,-99.99,,,0.00,Acu-Link.com,2013-04-26 23:24:00,
2013-04-26 19:39:00,65.5,40.5,30.19,South,180,0.0,-999.0,40,-99.99,,,0.00,Acu-Link.com,2013-04-26 23:39:00,
2013-04-26 20:10:00,62.8,41.7,30.20,SW,225,0.0,-999.0,46,-99.99,,,0.00,Acu-Link.com,2013-04-27 00:10:00,
2013-04-26 20:25:00,61.3,43.5,30.21,West,270,0.0,-999.0,52,-99.99,,,0.00,Acu-Link.com,2013-04-27 00:25:00,
2013-04-26 20:40:00,60.6,41.9,30.22,WNW,292,0.0,-999.0,50,-99.99,,,0.00,Acu-Link.com,2013-04-27 00:40:00,
2013-04-26 20:55:00,60.1,42.9,30.22,SW,225,0.0,-999.0,53,-99.99,,,0.00,Acu-Link.com,2013-04-27 00:55:00,
2013-04-26 21:11:00,59.0,42.4,30.23,SW,225,0.0,-999.0,54,-99.99,,,0.00,Acu-Link.com,2013-04-27 01:11:00,
2013-04-26 21:26:00,58.3,42.7,30.23,SW,225,0.0,-999.0,56,-99.99,,,0.00,Acu-Link.com,2013-04-27 01:26:00,
2013-04-26 21:41:00,57.2,43.9,30.23,SW,225,0.0,-999.0,61,-99.99,,,0.00,Acu-Link.com,2013-04-27 01:41:00,
2013-04-26 21:56:00,56.3,43.9,30.24,SW,225,0.0,-999.0,63,-99.99,,,0.00,Acu-Link.com,2013-04-27 01:56:00,
2013-04-26 22:11:00,55.4,44.2,30.24,SW,225,0.0,-999.0,66,-99.99,,,0.00,Acu-Link.com,2013-04-27 02:11:00,
2013-04-26 22:27:00,54.7,45.1,30.24,SW,225,0.0,-999.0,70,-99.99,,,0.00,Acu-Link.com,2013-04-27 02:27:00,
2013-04-26 22:42:00,54.1,46.4,30.24,SE,135,0.0,-999.0,75,-99.99,,,0.00,Acu-Link.com,2013-04-27 02:42:00,
2013-04-26 22:57:00,53.4,46.4,30.23,ENE,67,0.0,-999.0,77,-99.99,,,0.00,Acu-Link.com,2013-04-27 02:57:00,
2013-04-26 23:12:00,52.7,47.4,30.22,ENE,67,0.0,-999.0,82,-99.99,,,0.00,Acu-Link.com,2013-04-27 03:12:00,
2013-04-26 23:28:00,52.9,47.6,30.22,NNW,337,0.0,-999.0,82,-99.99,,,0.00,Acu-Link.com,2013-04-27 03:28:00,
2013-04-26 23:43:00,52.3,47.6,30.22,NNW,337,0.0,-999.0,84,-99.99,,,0.00,Acu-Link.com,2013-04-27 03:43:00,
2013-04-26 23:58:00,51.6,47.6,30.21,NNW,337,0.0,-999.0,86,-99.99,,,0.00,Acu-Link.com,2013-04-27 03:58:00,